Stations météo

réclame
Mon MeteoGroup
Socoa, France (7600): Température de l'air & dewpoint: 12.01.2019 13:00:00 - 18.01.2019 13:00:00 (CET)Socoa, France (7600): Vitesse du vent & gusts: 12.01.2019 13:00:00 - 18.01.2019 13:00:00 (CET)Socoa, France (7600): Direction du vent: 12.01.2019 13:00:00 - 18.01.2019 13:00:00 (CET)Socoa, France (7600): reduced air pressure: 12.01.2019 13:00:00 - 18.01.2019 13:00:00 (CET)Socoa, France (7600): visibility: 12.01.2019 13:00:00 - 18.01.2019 13:00:00 (CET)Socoa, France (7600): Quantités de précipitations: 12.01.2019 13:00:00 - 18.01.2019 13:00:00 (CET)
Date & Time tt [°C] td [°C] ff [km/h] ff [knt] fx [km/h] fx [knt] dd ppp [hPa] vv [km] rr [mm]
18.01.2019 13:00:00 8,3 5,4 9 5 21 11 S 1019,8 14 0,0
18.01.2019 12:00:00 8,0 4,4 16 8 21 11 SW 1020,4 - 0,0
18.01.2019 11:00:00 7,6 4,4 13 7 21 11 SSW 1020,5 - 0,0
18.01.2019 10:00:00 6,4 4,2 13 7 16 9 SSW 1020,3 16 0,0
18.01.2019 09:00:00 6,1 3,8 12 7 17 9 SSW 1020,0 - 0,0
18.01.2019 08:00:00 6,3 3,3 15 8 26 14 SSW 1020,0 - 0,0
18.01.2019 07:00:00 6,1 3,8 19 11 26 14 SSW 1020,1 - 0,0
18.01.2019 06:00:00 6,0 3,8 16 9 23 13 SSW 1020,4 - 0,2
18.01.2019 05:00:00 6,1 4,4 13 7 23 12 S 1020,9 - 0,2
18.01.2019 04:00:00 6,9 5,0 7 4 18 10 S 1021,5 12 0,2
18.01.2019 03:00:00 6,7 5,0 18 10 29 16 SW 1021,9 - 0,2
18.01.2019 02:00:00 6,6 4,8 15 8 31 17 SSW 1022,0 - 2,2
18.01.2019 01:00:00 7,0 4,8 19 10 30 16 SSW 1022,2 10 0,4
18.01.2019 00:00:00 6,8 4,8 21 12 29 16 SSW 1022,5 - 0,0
17.01.2019 23:00:00 5,8 4,0 17 9 24 13 SSW 1022,3 - 0,0
17.01.2019 22:00:00 6,5 4,3 18 10 27 15 SSW 1022,3 18 0,0
17.01.2019 21:00:00 8,3 4,1 20 11 49 26 W 1022,0 - 1,2
17.01.2019 20:00:00 7,7 5,8 18 10 26 14 SSW 1021,8 - 0,2
17.01.2019 19:00:00 8,1 6,4 19 10 40 22 SW 1021,4 - 0,4
17.01.2019 18:00:00 7,6 5,9 14 8 23 12 SW 1020,8 - 0,0
17.01.2019 17:00:00 8,3 5,9 13 7 38 21 WSW 1020,7 - 1,4
17.01.2019 16:00:00 9,8 6,5 18 10 41 22 SW 1020,4 - 0,4
17.01.2019 15:00:00 10,0 6,3 29 16 48 26 WSW 1020,5 - 0,2
17.01.2019 14:00:00 10,8 6,7 28 15 42 23 WSW 1020,5 - 0,0
17.01.2019 13:00:00 9,3 5,7 35 19 62 34 W 1020,9 14 1,4
17.01.2019 12:00:00 10,8 5,5 16 9 34 19 W 1021,3 - 0,4
17.01.2019 11:00:00 10,3 5,9 14 8 41 22 WSW 1021,2 - 0,0
17.01.2019 10:00:00 10,8 5,1 29 16 59 32 WNW 1020,4 20 0,0
17.01.2019 09:00:00 10,5 5,0 36 19 61 33 WNW 1019,8 - 0,0
17.01.2019 08:00:00 11,1 5,2 37 20 61 33 NW 1019,0 - 0,0
17.01.2019 07:00:00 10,4 6,7 23 12 41 22 WNW 1018,3 15 0,0
17.01.2019 06:00:00 10,4 7,1 31 17 38 21 NW 1017,9 - 0,9
17.01.2019 05:00:00 9,2 8,1 21 11 36 19 SW 1017,8 - 4,6
17.01.2019 04:00:00 9,2 7,1 21 11 33 18 SW 1017,9 6 1,2
17.01.2019 03:00:00 10,5 6,1 21 11 34 18 SW 1017,5 - 0,0
17.01.2019 02:00:00 10,8 5,3 16 9 29 16 SW 1017,1 - 0,0
17.01.2019 01:00:00 10,5 5,5 15 8 28 15 SSW 1017,3 18 0,0
17.01.2019 00:00:00 10,9 5,2 16 9 24 13 SSW 1017,4 - 0,0
16.01.2019 23:00:00 10,9 5,2 15 8 26 14 SW 1017,7 - 0,0
16.01.2019 22:00:00 10,0 4,8 17 9 24 13 SW 1017,4 18 0,0
16.01.2019 21:00:00 8,9 4,9 12 6 16 9 S 1017,3 - 0,0
16.01.2019 20:00:00 8,7 5,1 9 5 18 10 SSW 1017,3 - 0,0
16.01.2019 19:00:00 8,6 5,2 14 7 18 10 SSW 1017,1 - 0,0
16.01.2019 18:00:00 10,7 5,7 11 6 19 10 SSW 1016,9 - 0,0
16.01.2019 17:00:00 12,8 7,2 12 6 17 9 W 1016,6 - 0,0
16.01.2019 16:00:00 13,1 7,7 7 4 20 11 W 1016,4 20 0,0
16.01.2019 15:00:00 13,5 8,3 16 9 26 14 W 1016,5 - 0,0
16.01.2019 14:00:00 13,6 8,2 19 10 34 19 W 1016,8 - 0,0
16.01.2019 13:00:00 13,0 8,5 28 15 41 22 W 1017,3 22 0,0
16.01.2019 12:00:00 12,7 6,5 16 9 22 12 W 1017,7 - 0,0
16.01.2019 11:00:00 9,5 5,1 13 7 21 11 WSW 1017,5 - 0,0
16.01.2019 10:00:00 8,2 5,8 15 8 22 12 WSW 1017,0 20 0,0
16.01.2019 09:00:00 4,6 3,4 8 4 14 8 WNW 1016,5 - 0,0
16.01.2019 08:00:00 4,4 3,4 4 2 18 10 NW 1016,2 - 0,0
16.01.2019 07:00:00 3,1 2,2 4 2 16 8 SW 1015,9 - 0,0
16.01.2019 06:00:00 2,8 2,1 7 4 17 9 WSW 1015,9 - 0,2
16.01.2019 05:00:00 2,4 1,5 4 2 14 7 W 1016,4 - 0,0
16.01.2019 04:00:00 2,2 1,2 4 2 14 8 SSE 1016,9 20 0,0
16.01.2019 03:00:00 2,7 1,8 3 2 12 7 SW 1017,4 - 0,0
16.01.2019 02:00:00 2,6 1,4 6 3 13 7 SSE 1017,9 - 0,0
16.01.2019 01:00:00 3,3 2,3 6 3 12 6 S 1018,5 18 0,0
16.01.2019 00:00:00 3,5 2,5 6 3 9 5 SE 1018,9 - 0,0
15.01.2019 23:00:00 4,2 3,0 4 2 12 6 S 1019,3 - 0,0
15.01.2019 22:00:00 5,0 3,7 4 2 8 5 SE 1019,6 18 0,0
15.01.2019 21:00:00 5,6 2,9 4 2 13 7 E 1019,9 - 0,0
15.01.2019 20:00:00 7,6 4,7 9 5 17 9 ESE 1020,0 - 0,0
15.01.2019 19:00:00 8,9 5,1 11 6 24 13 E 1020,2 18 0,0
15.01.2019 18:00:00 10,1 5,7 17 9 26 14 NE 1020,0 - 0,0
15.01.2019 17:00:00 12,6 5,5 16 9 26 14 ENE 1020,0 - 0,0
15.01.2019 16:00:00 12,7 6,1 16 9 24 13 E 1020,3 20 0,0
15.01.2019 15:00:00 13,9 5,8 14 7 21 11 NE 1020,8 - 0,0
15.01.2019 14:00:00 13,0 5,9 13 7 24 13 E 1021,7 - 0,0
15.01.2019 13:00:00 10,7 5,7 13 7 29 16 E 1023,1 - 0,0
15.01.2019 12:00:00 10,5 6,8 11 6 21 11 ENE 1024,2 - 0,0
15.01.2019 11:00:00 9,6 6,7 15 8 21 12 ENE 1024,8 - 0,0
15.01.2019 10:00:00 8,8 5,9 14 8 20 11 E 1024,8 - 0,0
15.01.2019 09:00:00 8,5 6,1 13 7 21 12 E 1024,7 - 0,0
15.01.2019 08:00:00 8,5 5,8 15 8 24 13 E 1024,7 - 0,0
15.01.2019 07:00:00 8,5 6,6 11 6 17 9 ESE 1024,9 18 0,0
15.01.2019 06:00:00 8,6 6,9 8 4 22 12 SE 1024,8 - 0,0
15.01.2019 05:00:00 9,0 7,9 16 9 22 12 E 1025,3 - 0,0
15.01.2019 04:00:00 8,7 7,6 6 3 9 5 E 1025,7 15 0,0
15.01.2019 03:00:00 8,7 7,5 3 1 9 5 ESE 1026,0 - 0,0
15.01.2019 02:00:00 9,0 7,6 5 3 14 8 SE 1026,2 - 0,0
15.01.2019 01:00:00 9,5 8,3 9 5 14 8 SSE 1026,3 15 0,0
15.01.2019 00:00:00 9,8 8,7 10 5 18 10 SE 1026,6 - 0,4
14.01.2019 23:00:00 10,2 9,1 5 3 18 10 E 1026,8 - 0,4
14.01.2019 22:00:00 10,5 9,4 10 6 23 12 ENE 1026,8 8 0,0
14.01.2019 21:00:00 10,8 9,7 22 12 34 18 N 1026,7 - 0,2
14.01.2019 20:00:00 11,1 10,0 27 15 44 24 NW 1026,5 - 1,2
14.01.2019 19:00:00 11,3 9,9 22 12 37 20 W 1026,3 8 0,0
14.01.2019 18:00:00 11,3 9,4 25 13 36 20 W 1026,4 - 0,0
14.01.2019 17:00:00 11,2 9,9 28 15 40 22 W 1026,5 - 0,2
14.01.2019 16:00:00 11,3 10,0 28 15 39 21 W 1026,5 8 0,2
14.01.2019 15:00:00 11,1 10,0 24 13 43 23 W 1026,5 - 1,0
14.01.2019 14:00:00 11,2 9,3 23 13 46 25 WSW 1026,7 - 0,2
14.01.2019 13:00:00 11,6 9,3 28 15 41 22 WSW 1027,2 10 0,0
14.01.2019 12:00:00 12,0 9,2 20 11 32 17 W 1027,8 - 0,0
14.01.2019 11:00:00 11,4 9,3 16 9 45 25 W 1027,9 - 0,0
14.01.2019 10:00:00 11,0 9,7 28 15 44 24 W 1027,5 15 0,2
14.01.2019 09:00:00 10,7 9,0 31 17 44 24 W 1027,0 - 0,0
14.01.2019 08:00:00 10,8 8,9 29 16 58 31 WNW 1026,7 - 0,6
14.01.2019 07:00:00 10,8 9,6 31 17 47 26 WNW 1026,4 - 0,4
14.01.2019 06:00:00 10,8 9,2 34 18 48 26 W 1026,6 - 0,0
14.01.2019 05:00:00 10,3 9,1 28 15 52 28 WSW 1027,1 - 0,8
14.01.2019 04:00:00 10,3 9,1 22 12 39 21 WSW 1027,4 - 1,0
14.01.2019 03:00:00 10,3 9,2 21 11 37 20 WSW 1027,8 - 0,9
14.01.2019 02:00:00 9,8 8,7 17 9 49 27 WSW 1028,1 - 0,8
14.01.2019 01:00:00 9,7 8,5 20 11 32 17 WSW 1028,6 - 0,8
14.01.2019 00:00:00 9,6 8,5 18 10 31 17 WSW 1028,9 - 1,6
13.01.2019 23:00:00 9,4 8,3 18 10 31 17 SW 1029,1 - 1,0
13.01.2019 22:00:00 9,4 8,3 19 11 33 18 SW 1029,2 5 0,8
13.01.2019 21:00:00 9,5 8,3 21 11 35 19 SW 1029,1 - 0,2
13.01.2019 20:00:00 9,6 8,2 21 11 40 22 SW 1029,1 - 0,4
13.01.2019 19:00:00 10,0 8,4 19 11 53 29 SW 1029,1 - 0,0
13.01.2019 18:00:00 10,3 9,1 29 15 48 26 W 1029,4 - 0,2
13.01.2019 17:00:00 9,6 8,5 19 11 43 23 WSW 1029,5 - 0,8
13.01.2019 16:00:00 9,7 8,5 32 17 45 25 WSW 1029,5 5 0,4
13.01.2019 15:00:00 10,0 8,9 29 16 45 25 WSW 1030,1 - 0,6
13.01.2019 14:00:00 10,4 9,3 29 16 43 23 WSW 1030,5 - 0,2
13.01.2019 13:00:00 9,7 8,6 17 9 33 18 SW 1031,0 - 1,4
13.01.2019 12:00:00 9,5 8,4 22 12 34 18 SW 1031,8 - 1,0
13.01.2019 11:00:00 9,5 8,1 18 10 31 17 SW 1032,4 - 0,4
13.01.2019 10:00:00 9,4 8,0 20 11 34 18 SW 1031,9 - 0,4
13.01.2019 09:00:00 9,4 7,2 17 9 26 14 SW 1031,9 - 0,0
13.01.2019 08:00:00 10,3 5,9 18 10 38 20 SW 1031,7 - 0,0
13.01.2019 07:00:00 11,2 6,3 27 15 41 22 W 1031,5 - 0,0
13.01.2019 06:00:00 11,0 6,5 27 15 40 21 WNW 1031,8 - 0,0
13.01.2019 05:00:00 11,1 5,4 22 12 33 18 WNW 1032,1 - 0,0
13.01.2019 04:00:00 10,9 4,8 17 9 29 15 NW 1032,5 - 0,0
13.01.2019 03:00:00 10,9 5,0 13 7 25 14 NW 1032,4 - 0,0
13.01.2019 02:00:00 10,8 5,5 18 10 30 16 NNW 1032,7 - 0,0
13.01.2019 01:00:00 10,7 5,2 14 8 36 19 NNW 1033,3 20 0,0
13.01.2019 00:00:00 11,0 5,1 23 12 30 16 NW 1033,9 - 0,0
12.01.2019 23:00:00 10,9 4,1 20 11 34 18 NNW 1033,8 - 0,0
12.01.2019 22:00:00 11,0 4,4 29 16 34 18 NNW 1033,9 20 0,0
12.01.2019 21:00:00 10,7 4,8 22 12 33 18 NNW 1033,8 - 0,0
12.01.2019 20:00:00 9,1 6,2 8 4 19 10 WSW 1033,8 - 0,0
12.01.2019 19:00:00 8,8 5,4 8 4 11 6 S 1033,6 - 0,0
12.01.2019 18:00:00 9,2 5,2 7 4 10 5 SW 1033,3 - 0,0
12.01.2019 17:00:00 9,9 5,3 3 2 9 5 WSW 1033,0 - 0,0
12.01.2019 16:00:00 10,3 5,9 5 3 10 5 W 1033,2 18 0,0
12.01.2019 15:00:00 10,8 5,1 4 2 13 7 WNW 1033,1 - 0,0
12.01.2019 14:00:00 10,5 4,8 6 3 13 7 W 1033,3 - 0,0
12.01.2019 13:00:00 9,5 4,7 9 5 12 7 W 1033,8 - 0,0

tt = Température de l'air
td = dewpoint
ff = Vitesse du vent
fx = gusts
dd = Direction du vent
ppp = reduced air pressure
vv = visibility
rr = Quantités de précipitations

stations d'obs. à proximité